Статистика

Перформанси вкупни на сите времиња
Алеја на славните
Најдобра Елите шампионат сезона
Менаџери со најмногу титули во Елит

Најдобри менаџери (според најмногу трки)
Најдобри менаџери (според најмногу победи)
Најдобри менаџери (според најмногу пол-позиции)
Најдобри менаџери (според најмногу поени)
Најдобри менаџери (според најмногу најбрзи круга)
Најдобри менаџери (според најмногу подиуми)
Најдобри менаџери (според просечно поени по трка)

Најдобри менаџери (според најмногу квалификациони рекорди)
Најдобри менаџери (според најмногу рекорди на патеки)
Најдобрите менаџери (по најмногу квалификациски успеси на влажна патека)
Најдобрите менаџери (по најмногу рекорди и успеси на влажна патека)
Најдобри менаџери (по вкупно најдобрите квалификациски времиња на круговите на сите патеки)
Најдобри менаџери (по лично најдобрите времиња поставени во квалификации на сите патеки )
Статистика на тимови
Активност во играта статистика
Статистика за форумот
Нации статистика
Други статистики
Најдобри менаџери (според највисоко ниво на болид)
Најдобри менаџери (според најдобар персонал и објекти)
Најдобри менаџери (според приходи од спонзори)
Најбогати менаџери
Добавувачи на гуми - статистика
Статистика за времето

Менаџери со најмногу трошоци
Менаџери со најмногу кругови во водство
Менаџери со најмногу освоени позиции
Менаџери со најмногу несреќи на почетокот
Менаџери со најмногу испаѓања од трка
Пласман ако сезоната беше една голема трка
Менаџери со најмногу хет-трика
Менаџери со најмногу Гранд Челем
Победа од најниска позиција
Менаџери со најмногу победи во низа
Менаџери со најмногу подиуми во низа
Менаџери со најмногу завршувања во поени во низа

Најмногу менаџери од иста резиденција
Најпопуларни бои на болидите
Сите менаџери со слика
Сите менаџери со алтер его слика
Сите менаџери со дизајнирани кациги
Најпопуларни пријатели
Статистика на достигнувањата
Персонал статистика
ГПРОподдржувачи статистика

Најдобри менаџери (по вкупно најдобрите квалификациски времиња на круговите на сите патеки)
Овај ранкинг ги користи вкупните лични достигнувања на квалификациските кругови за секоја патека за секој менаџер.
За да бидете вклучен во ранкингот мора да имате учествувано барем во една трка на сите постоечки патеки.
 
Страница [12 3 ... 49 50 51 » Брзо оди на страница:
# Нац Име на менаџер Група Вкупно време
HH:MM:SS.XXXs
Заостанување
HH:MM:SS.XXXs
1. Roland Postle9 Master - 1 1:20:46.846s + 0.000s
2. George Slater1 Elite 1:20:59.398s + 12.552s
3. Rimantas Sagatas4 Elite 1:21:01.227s + 14.381s
4. Leandro Sereno7 Elite 1:21:08.825s + 21.979s
5. Rafal Celejewski Elite 1:21:14.594s + 27.748s
6. Jasper Coosemans1 Elite 1:21:14.600s + 27.754s
7. Bert Huylebroeck1 Master - 3 1:21:18.762s + 31.916s
8. Brad Marshall1 Master - 2 1:21:21.288s + 34.442s
9. Dominiek Van West Elite 1:21:23.474s + 36.628s
10. Kristijan Mihovic Elite 1:21:32.723s + 45.877s
11. Ioannis Dimitroglou4 Master - 5 1:21:33.154s + 46.308s
12. Ania Piekarska Pro - 8 1:21:40.640s + 53.794s
13. Andrea Squizzato1 Master - 1 1:21:42.002s + 55.156s
14. Vsevolod Demydov2 Master - 4 1:21:46.534s + 59.688s
15. Vladimir Valis Elite 1:21:48.737s + 0:01:01.891s
16. Pablo Fernandez1 Pro - 24 1:21:53.648s + 0:01:06.802s
17. Lee Harding Elite 1:21:53.973s + 0:01:07.127s
18. Kuba Szajbel Elite 1:21:55.001s + 0:01:08.155s
19. Toni Söyrinki Master - 1 1:21:59.645s + 0:01:12.799s
20. Florencia Caro Amateur - 58 1:22:00.502s + 0:01:13.656s
21. Vladimir Islentiev2 Amateur - 61 1:22:00.754s + 0:01:13.908s
22. Atis Praudins Master - 1 1:22:01.008s + 0:01:14.162s
23. Paweł Zaburski Elite 1:22:05.194s + 0:01:18.348s
24. Max Watson Retired 1:22:09.025s + 0:01:22.179s
25. David Rolleston1 Amateur - 67 1:22:10.812s + 0:01:23.966s
26. Róbert László2 Master - 4 1:22:11.143s + 0:01:24.297s
27. Harsh Sheth Master - 2 1:22:13.450s + 0:01:26.604s
28. Gyuri Székely Master - 5 1:22:17.463s + 0:01:30.617s
29. Bruno Caseiro1 Elite 1:22:17.709s + 0:01:30.863s
30. Antonio Gattulli Master - 3 1:22:19.064s + 0:01:32.218s
31. Nevzat Kasapoglu Amateur - 14 1:22:19.075s + 0:01:32.229s
32. Wouter Teuwen Elite 1:22:20.678s + 0:01:33.832s
33. Jean-marc Boissinot Elite 1:22:21.138s + 0:01:34.292s
34. Theodosis Vogiatzis Pro - 21 1:22:22.747s + 0:01:35.901s
35. Raimonds Urtāns Master - 1 1:22:23.607s + 0:01:36.761s
36. Chris Adnams Amateur - 6 1:22:24.099s + 0:01:37.253s
37. Maxim Kotov2 Retired 1:22:24.393s + 0:01:37.547s
38. Aigars Vitolins Master - 1 1:22:24.728s + 0:01:37.882s
39. Paulo Pinto1 Pro - 8 1:22:26.414s + 0:01:39.568s
40. Miel Soeterbroek Amateur - 9 1:22:26.802s + 0:01:39.956s
41. Ilya Vedenikov Elite 1:22:30.614s + 0:01:43.768s
42. Mihail Morozov Elite 1:22:31.747s + 0:01:44.901s
43. Apostolis Goutzos Master - 3 1:22:32.814s + 0:01:45.968s
44. Juan Diego Milán Master - 2 1:22:34.152s + 0:01:47.306s
45. Gonzalo Alvarez Elite 1:22:34.188s + 0:01:47.342s
46. Artur Terezan Elite 1:22:34.270s + 0:01:47.424s
47. Gustavo Bellotto Master - 1 1:22:35.702s + 0:01:48.856s
48. Rafael Mantovani Pro - 7 1:22:37.948s + 0:01:51.102s
49. Ignacio Belatti Pro - 5 1:22:38.108s + 0:01:51.262s
50. Nuno Vicente Master - 3 1:22:38.155s + 0:01:51.309s
51. Mika Pekkarinen Master - 5 1:22:38.529s + 0:01:51.683s
52. Josh Clark Elite 1:22:39.623s + 0:01:52.777s
53. Michal Szopinski Amateur - 32 1:22:40.041s + 0:01:53.195s
54. Frederico Neves1 Pro - 17 1:22:41.201s + 0:01:54.355s
55. Ayman Daher Retired 1:22:41.263s + 0:01:54.417s
56. Andreas Ramann Master - 4 1:22:41.694s + 0:01:54.848s
57. Kamal Naoui Elite 1:22:41.751s + 0:01:54.905s
58. José Abi Jaudi Master - 4 1:22:42.630s + 0:01:55.784s
59. Daniele Bontempo Amateur - 19 1:22:42.710s + 0:01:55.864s
60. Luca Molendi Master - 5 1:22:42.997s + 0:01:56.151s
61. Sergio Fanelli Master - 3 1:22:43.064s + 0:01:56.218s
62. Tomasz Kaminski Pro - 11 1:22:44.989s + 0:01:58.143s
63. Pieterjan Staessen Elite 1:22:45.153s + 0:01:58.307s
64. Radek Czech2 Amateur - 64 1:22:45.424s + 0:01:58.578s
65. Aleksej Sutkin Pro - 25 1:22:45.539s + 0:01:58.693s
66. Branislav Mihic Master - 4 1:22:47.755s + 0:02:00.909s
67. Simone Scarpa Elite 1:22:48.036s + 0:02:01.190s
68. Łukasz Dudek1 Retired 1:22:48.976s + 0:02:02.130s
69. Patryk Janczak Amateur - 69 1:22:49.977s + 0:02:03.131s
70. Mikael Brostrom Master - 3 1:22:50.921s + 0:02:04.075s
71. Stefan Gommans Pro - 2 1:22:51.657s + 0:02:04.811s
72. Kai Wen Chew Elite 1:22:52.281s + 0:02:05.435s
73. Pedro Moura Master - 1 1:22:53.031s + 0:02:06.185s
74. Alessandro Casagrande Pro - 25 1:22:53.880s + 0:02:07.034s
75. Mark Webster Master - 4 1:22:54.050s + 0:02:07.204s
76. Ivan Silva Elite 1:22:54.965s + 0:02:08.119s
77. Ahmet Sonverdi Master - 4 1:22:55.213s + 0:02:08.367s
78. Dmitry Shevel Elite 1:22:55.720s + 0:02:08.874s
79. Peter Both Master - 2 1:22:56.505s + 0:02:09.659s
80. Stanislav Frolov Amateur - 9 1:22:56.591s + 0:02:09.745s
81. Ville Pohjanen Amateur - 68 1:22:57.152s + 0:02:10.306s
82. Daniel Comalada Amateur - 58 1:22:57.185s + 0:02:10.339s
83. Alex Holland Amateur - 18 1:22:58.182s + 0:02:11.336s
84. Eduard Gindullin Amateur - 62 1:23:01.295s + 0:02:14.449s
85. Victor Chernyshev Pro - 6 1:23:01.383s + 0:02:14.537s
86. Tan S Lake Elite 1:23:02.431s + 0:02:15.585s
87. Jens Frostrup Amateur - 25 1:23:02.730s + 0:02:15.884s
88. Carlos Esparza Pro - 15 1:23:03.400s + 0:02:16.554s
89. Tomek Kiełpiński Pro - 9 1:23:05.006s + 0:02:18.160s
90. Jakab Zoltan Pro - 9 1:23:05.305s + 0:02:18.459s
91. Andrej Rilke Pro - 22 1:23:07.330s + 0:02:20.484s
92. Christer Andersson Master - 1 1:23:07.524s + 0:02:20.678s
93. Jani Syrjäläinen Retired 1:23:07.530s + 0:02:20.684s
94. Geoff Atkin Master - 1 1:23:08.711s + 0:02:21.865s
95. Ethan Littlejohns Amateur - 8 1:23:08.763s + 0:02:21.917s
96. Fabio Corio Pro - 25 1:23:08.967s + 0:02:22.121s
97. Mato Nikic Pro - 5 1:23:09.529s + 0:02:22.683s
98. Joel Viitikko Master - 3 1:23:09.828s + 0:02:22.982s
99. Wojciech Uzikowski Amateur - 27 1:23:10.087s + 0:02:23.241s
100. Mihail Golovanov Pro - 13 1:23:10.215s + 0:02:23.369s
Страница [12 3 ... 49 50 51 » Брзо оди на страница: